Regional Weather Roundup
Issued by NWS Cleveland, OH

Home | Current Version | Previous Version | Graphics & Text | Print | Product List | Glossary On
Versions: 1 2 3 4 5 6 7 8 9 10 11 12 13 14 15 16 17 18 19 20 21 22 23 24 25 26 27 28 29 30 31 32 33 34 35 36 37 38 39 40 41 42 43 44 45 46 47 48 49 50
000
ASUS41 KCLE 210102
RWRCLE
OHIO REGIONAL WEATHER ROUNDUP
NATIONAL WEATHER SERVICE CLEVELAND, OH
900 PM EDT FRI OCT 20 2017

NOTE: "FAIR" INDICATES FEW OR NO CLOUDS BELOW 12,000 FEET WITH NO
SIGNIFICANT WEATHER AND/OR OBSTRUCTIONS TO VISIBILITY.

OHZ001>008-015>018-024>027-034-035-043-044-210200-
   NORTHWEST OHIO

CITY           SKY/WX    TMP DP  RH WIND       PRES   REMARKS
DEFIANCE       CLEAR     66  50  56 S6        30.16R
FINDLAY        CLEAR     60  45  57 S8        30.17S
TOLEDO EXPRESS CLEAR     56  54  93 SE5       30.15F
TOLEDO EXEC    CLEAR     60  45  57 S3        30.17S
LIMA           CLEAR     60  50  69 SE7       30.18F
$$

OHZ009>014-019>023-028>033-038-089-210200-
   NORTHEAST OHIO

CITY           SKY/WX    TMP DP  RH WIND       PRES   REMARKS
CLE-HOPKINS    PTCLDY    59  42  53 S6        30.21F
CLE-LAKEFRONT  CLEAR     65  41  41 S7        30.18F
CUY CO. ARPT   CLEAR     61  43  51 S6        30.20F
LORAIN-ELYRIA  CLEAR     60  37  42 S8        30.20S
ASHTABULA      CLEAR     57  39  51 S6        30.22R
AKRON-CANTON   CLEAR     60  40  47 S5        30.22F
WOOSTER        CLEAR     45  42  89 CALM      30.23S
MANSFIELD      CLEAR     58  43  57 S10       30.22S
YOUNGSTOWN     PTCLDY    57  37  47 S5        30.22S
$$

OHZ042-051>053-060>062-070>072-077>081-210200-
  SOUTHWEST OHIO

CITY           SKY/WX    TMP DP  RH WIND       PRES   REMARKS
CINC-COVINGTON PTCLDY    63  53  70 S3        30.20S
CINC-LUNKEN    CLEAR     55  55 100 CALM      30.20S
HAMILTON       CLEAR     53  52  96 CALM      30.20S
DAYTON         PTCLDY    65  54  67 S6        30.20F
WRIGHT-PAT AFB CLEAR     60  53  79 CALM      30.19S
DAYTON GENERAL CLEAR     64  52  64 CALM      30.19F
WILMINGTON     CLEAR     59  53  80 SE3       30.21F
$$

OHZ036-037-039>041-045>050-054>059-063>069-073>076-082>088-210200-
  CENTRAL AND SOUTHEAST OHIO

CITY           SKY/WX    TMP DP  RH WIND       PRES   REMARKS
COLUMBUS       PTCLDY    59  44  57 SE5       30.21S
OSU AIRPORT    CLEAR     58  44  60 SE5       30.21S
BOLTON FIELD   CLEAR     53  46  75 SE5       30.22S
RICKENBACK AFB CLEAR     56  44  62 SE5       30.21S
NEWARK         CLEAR     51  45  79 CALM      30.22S
MARION         CLEAR     56  39  53 S6        30.21S
LANCASTER      CLEAR     47  44  90 CALM      30.23R
ZANESVILLE     CLEAR     56  43  61 CALM      30.23S
NEW PHILLY     NOT AVBL
$$




USA.gov is the U.S. government's official web portal to all federal, state and local government web resources and services.